Slocum Raleigh on mission Arctic PRIZE 3 Piloting

  • Deployed: 2018/04/25 00:00:00 UTC (540 days ago) by Marie Porter
  • Recovered: 2018/05/18 17:00:00 UTC (517 days ago) by esdu
  • Time at Sea: 23 days
  • Profiles Performed: 1096

Near Real-Time Data

 
backscatter
cdom
chlorophyll
conductivity
density
oxygen
potential_density
potential_temperature
salinity
sound_velocity
temperature

Communication Log

# Updated Depth Speed Plots
1382210 2018-05-18 16:33:23 UTC (517 days ago)
1382205 2018-05-18 16:26:07 UTC (517 days ago)
1382214 2018-05-18 16:24:14 UTC (517 days ago)
1382201 2018-05-18 16:19:45 UTC (517 days ago)
1382196 2018-05-18 16:15:40 UTC (517 days ago)
1382191 2018-05-18 16:09:36 UTC (517 days ago)
1382189 2018-05-18 16:03:30 UTC (517 days ago)
1382194 2018-05-18 15:59:59 UTC (517 days ago)
1382187 2018-05-18 15:57:17 UTC (517 days ago)
1382182 2018-05-18 15:51:14 UTC (517 days ago)
1382184 2018-05-18 15:50:47 UTC (517 days ago)
1382180 2018-05-18 15:45:10 UTC (517 days ago)
1382177 2018-05-18 15:38:50 UTC (517 days ago)
1382175 2018-05-18 15:35:48 UTC (517 days ago)
1382179 2018-05-18 15:35:24 UTC (517 days ago)
1382174 2018-05-18 15:32:08 UTC (517 days ago)
1382171 2018-05-18 15:24:55 UTC (517 days ago)
1382169 2018-05-18 15:17:31 UTC (517 days ago)
1382165 2018-05-18 15:11:20 UTC (517 days ago)
1382163 2018-05-18 15:05:04 UTC (517 days ago)